Regional Weather Roundup
Issued by NWS

Home | Current Version | Previous Version | Graphics & Text | Print | Product List | Glossary On
Versions: 1 2 3 4 5 6 7 8 9 10 11 12 13 14 15 16 17 18 19 20 21 22 23 24 25 26 27 28 29 30 31 32 33 34 35 36 37 38 39 40 41 42 43 44 45 46 47 48 49 50
000
ASUS43 KTOP 140159
RWRKS

WEATHER ROUNDUP FOR KANSAS
NATIONAL WEATHER SERVICE GOODLAND KS
800 PM CST SAT FEB 13 2016

NOTE:  "FAIR" INDICATES FEW OR NO CLOUDS BELOW 12,000 FEET WITH NO
SIGNIFICANT WEATHER AND/OR OBSTRUCTIONS TO VISIBILITY.

KSZ001>006-013>018-027>032-041>047-140300-
NORTHWEST KANSAS

CITY           SKY/WX    TMP DP  RH WIND       PRES   REMARKS
GOODLAND       CLEAR     31  28  89 S12       29.93F WCI  22
HAYS           CLOUDY    30  12  47 SE12      30.04F WCI  21
HILL CITY      CLOUDY    30  20  66 E9        30.03F
RUSSELL        CLOUDY    30  15  53 SE15      30.04F WCI  19
$$

KSZ061>065-074>080-084>089-140300-
SOUTHWEST KANSAS

CITY           SKY/WX    TMP DP  RH WIND       PRES   REMARKS
DODGE CITY     CLOUDY    33  21  61 E10       30.01S WCI  25
ELKHART          N/A     55  27  34 W10         N/A
GARDEN CITY    CLOUDY    36  25  64 E17       29.97S WCI  26
GREAT BEND     CLOUDY    32  12  43 SE12      30.07F WCI  23
LIBERAL        CLEAR     50  30  46 E18G25    29.90F
$$

KSZ066>073-081>083-090>101-140300-
SOUTHEAST KANSAS

CITY           SKY/WX    TMP DP  RH WIND       PRES   REMARKS
CHANUTE        CLOUDY    30   8  39 NE14G21   30.21S WCI  19
COFFEYVILLE    CLOUDY    39  14  36 E8        30.17F
HUTCHINSON     CLOUDY    34  12  40 E10       30.11F WCI  26
MEDICINE LODGE   N/A     40  25  55 E10G18    30.04F WCI  33
NEWTON         CLOUDY    30   9  40 E9        30.14F
PARSONS        CLOUDY    35  13  40 NE8       30.19S
WICHITA INTL   CLOUDY    37  10  32 E12       30.12F WCI  29
WICHITA JABRA  CLOUDY    33   9  36 E8        30.13F
WINFIELD       CLOUDY    40  17  39 E7        30.13F
$$

KSZ007>012-019>026-033>040-048>060-102>105-140300-
NORTHEAST KANSAS

CITY           SKY/WX    TMP DP  RH WIND       PRES   REMARKS
CONCORDIA      CLEAR     22   6  50 E10       30.15F WCI  11
EMPORIA        CLOUDY    23   8  52 E13       30.20F WCI  11
LAWRENCE       CLOUDY    23   4  44 E9        30.28F
MANHATTAN      CLOUDY    23   6  48 E10       30.22F WCI  12
OLATHE IND     CLOUDY    22   4  46 E12       30.27F WCI  10
OLATHE EXE     CLOUDY    21   2  43 E13       30.27S WCI   9
SALINA         CLOUDY    29   7  39 E9        30.15F
TOPEKA BILLARD CLOUDY    24   3  40 E13       30.28F WCI  12
TOPEKA FORBES  CLOUDY    23   5  46 E9        30.25F
$$



USA.gov is the U.S. government's official web portal to all federal, state and local government web resources and services.